Theta_e
332 331 330 334 328 322 325 324 317 321 329 325 313 312 314 313 312 314 314 314 320 326 332 335 335 334 335 337 334 333 339 343 348 353 354 350 349 351 350 349 354 358 356 353 355 357 356 356 356 356 355 353 352 350 349 348 348 347 343 341 339 338 337
330 331 330 332 331 328 324 317 320 327 329 327 319 313 314 313 312 314 313 312 315 316 321 333 338 336 335 336 335 333 338 343 344 349 355 360 360 358 356 357 356 357 358 356 356 357 356 356 356 355 354 353 351 349 348 349 348 345 342 341 340 339 339
329 332 329 326 329 332 327 323 328 327 317 316 317 314 313 314 313 314 312 312 314 313 318 330 336 336 336 338 341 338 335 340 341 342 353 364 364 359 362 363 358 355 358 357 356 356 355 355 355 355 354 352 350 348 347 348 347 344 342 342 341 341 341
329 330 325 318 320 329 330 328 331 328 320 316 316 315 314 313 314 315 314 313 314 318 326 333 336 338 338 340 345 343 336 336 342 341 346 358 360 355 357 359 358 355 353 353 354 355 356 356 355 354 353 352 350 348 346 346 345 344 343 343 342 342 341
326 322 323 321 321 324 324 321 321 322 322 321 319 318 315 314 314 314 315 313 313 324 340 342 338 339 338 337 340 344 339 333 339 343 344 354 360 356 356 359 357 352 349 352 354 354 356 357 354 352 351 352 350 348 346 345 344 344 345 344 343 343 341
317 320 328 329 328 328 325 322 319 320 321 318 315 315 315 314 313 313 315 313 314 328 344 343 338 336 334 336 337 338 339 336 339 344 343 352 361 357 355 356 352 349 351 356 356 354 353 354 352 350 350 351 350 347 345 345 345 345 345 345 344 342 340
323 328 332 330 329 331 331 327 327 327 324 317 311 311 314 314 314 315 314 311 317 333 344 341 340 339 334 335 338 335 337 339 339 339 339 350 364 360 352 352 350 350 354 356 356 355 354 352 351 348 348 350 350 345 343 344 345 345 344 344 344 342 340
329 330 332 332 330 331 328 327 330 328 324 323 319 319 320 315 313 314 313 311 319 337 349 343 341 341 334 334 337 334 337 339 338 342 345 354 368 366 356 353 354 352 353 356 357 357 355 354 352 348 347 350 348 343 341 342 344 344 343 344 343 342 341
320 322 324 325 327 327 325 326 330 328 328 328 324 326 327 318 313 315 315 313 320 338 351 345 338 338 335 335 336 335 340 341 337 344 349 355 369 369 362 362 362 357 356 359 360 357 355 353 351 347 347 349 348 343 342 342 343 343 342 343 344 343 342
313 315 315 316 320 323 324 327 328 328 331 327 322 322 320 315 316 318 315 314 323 340 346 338 337 337 335 337 336 335 341 343 344 349 351 358 373 374 367 368 368 365 363 362 361 358 355 353 351 349 348 348 346 343 343 343 343 342 340 340 342 343 343
315 317 322 327 326 321 318 321 325 327 330 330 327 319 315 318 321 318 320 324 325 332 340 338 338 338 338 340 339 337 342 344 349 356 355 357 369 372 371 371 368 368 368 365 362 359 357 355 352 351 350 348 347 345 344 344 342 341 338 336 337 339 340
324 327 332 332 329 323 319 320 323 325 329 329 325 317 321 332 323 314 329 340 326 327 340 340 340 344 347 347 341 339 345 346 344 353 356 352 354 365 374 373 367 367 368 365 362 358 356 354 351 352 351 348 347 346 344 343 342 341 339 336 337 338 337
327 330 329 330 330 328 327 326 324 325 327 325 322 320 328 336 323 318 337 346 331 332 339 336 339 345 344 344 340 337 342 344 343 350 355 349 346 356 370 373 371 370 368 366 362 357 354 352 351 352 352 349 348 346 343 341 339 339 338 338 338 338 338
324 327 328 330 329 326 326 328 328 328 328 326 325 325 327 332 328 330 344 346 338 335 336 334 339 343 342 341 339 337 339 342 346 347 346 345 344 351 362 368 371 372 367 365 364 360 355 353 353 353 352 350 347 344 341 338 336 336 336 338 339 339 340
319 326 329 328 328 325 323 325 329 330 328 327 326 327 327 329 329 331 340 341 339 338 339 339 342 349 349 343 339 341 343 343 343 343 340 341 344 347 356 363 366 366 363 363 365 364 358 354 355 354 352 350 346 342 337 334 333 335 337 340 341 341 342
313 323 326 324 327 326 319 319 325 326 325 325 325 329 329 328 329 332 331 328 333 339 340 337 340 345 345 341 340 344 346 343 342 343 345 346 347 350 356 362 365 365 363 364 366 363 357 355 356 354 352 349 343 339 335 333 334 336 339 342 342 342 343
312 322 325 323 323 319 315 318 325 327 328 328 328 330 332 333 335 332 325 326 337 345 340 335 336 338 339 342 343 342 344 346 345 346 347 346 347 351 355 360 365 367 363 364 365 361 357 356 356 354 351 345 340 337 334 336 337 338 340 343 343 343 344
313 320 324 323 320 315 317 326 330 331 331 330 328 328 331 335 338 336 332 336 343 342 337 337 338 337 341 345 345 341 342 346 347 345 345 346 345 346 349 351 358 365 365 363 363 360 356 354 352 351 348 341 337 336 336 337 338 338 339 341 342 344 344
316 319 322 319 316 319 327 332 334 332 331 331 331 332 333 335 338 340 337 337 339 338 337 339 337 338 342 342 342 343 340 342 345 342 342 347 345 345 348 349 355 367 370 367 362 357 354 352 350 347 343 339 336 336 337 338 337 337 339 340 342 344 344
319 317 316 317 321 328 331 333 334 332 333 334 330 330 333 335 336 339 338 335 336 337 336 336 336 338 339 337 339 342 340 339 339 335 335 340 340 342 350 354 361 370 371 367 361 355 353 354 353 348 343 339 338 336 337 337 336 338 341 343 343 343 343
321 315 313 319 325 329 330 332 335 334 335 335 332 327 332 339 337 335 337 338 336 335 335 336 337 336 336 335 336 337 335 336 337 334 334 336 337 343 350 351 355 362 365 365 361 356 355 356 354 349 343 339 336 335 336 336 336 339 343 344 343 342 342
324 317 314 318 320 320 326 332 337 336 334 336 337 331 330 337 337 333 335 340 338 337 336 336 337 337 335 335 336 335 334 335 336 335 335 335 335 341 346 347 352 357 361 364 362 358 358 357 353 348 342 337 334 333 333 335 338 341 342 341 341 341 341
322 318 316 318 316 319 331 339 337 334 333 335 336 327 324 333 337 333 334 337 337 337 335 336 339 338 334 334 335 334 334 334 334 336 339 338 337 342 346 348 353 357 360 364 363 359 357 355 349 342 336 334 335 336 337 338 340 342 342 342 341 341 340
320 320 317 318 319 325 337 337 332 333 335 338 334 322 323 337 343 337 334 335 337 337 338 337 337 336 335 336 335 332 332 331 333 339 342 340 341 344 345 348 353 357 360 363 362 358 355 351 343 336 333 332 334 338 340 340 340 341 341 341 341 341 340
318 318 316 316 322 333 339 333 332 334 331 331 327 324 333 346 344 338 335 333 335 338 338 336 335 335 336 336 335 333 332 332 335 338 339 340 341 338 338 345 353 357 360 362 360 355 351 344 337 333 332 332 333 338 341 340 339 340 340 340 340 338 338
318 319 318 316 322 336 339 331 332 333 330 326 327 334 343 343 337 335 336 333 334 336 335 334 335 335 333 332 333 333 332 336 340 339 337 339 338 336 341 350 356 358 359 358 356 350 342 336 335 334 333 334 337 341 342 340 338 337 336 337 337 336 335
321 319 318 317 322 335 337 333 337 340 339 337 340 341 340 336 334 336 335 333 335 338 336 336 337 336 336 336 337 335 335 340 344 343 345 347 344 344 351 357 356 355 351 348 348 345 338 334 335 335 335 339 342 341 342 344 342 340 340 338 336 335 334
325 319 321 325 331 336 334 336 340 342 342 344 344 339 336 335 336 336 335 338 341 340 341 341 339 338 339 338 339 339 338 340 342 343 349 353 350 349 354 354 351 348 344 343 343 341 338 335 334 335 338 341 341 342 346 346 344 343 343 340 337 337 337
334 330 334 337 338 337 334 336 339 338 337 338 337 337 337 338 339 338 337 340 341 340 341 342 339 339 338 337 339 338 335 337 342 345 348 351 349 348 349 350 348 347 345 343 341 343 344 341 341 343 342 340 342 347 347 344 342 342 339 336 336 337 337
338 339 340 337 336 337 334 333 334 333 334 335 336 337 338 337 337 336 335 337 338 339 340 341 340 340 338 337 337 336 336 342 348 350 350 351 348 345 344 345 345 344 343 343 344 348 347 345 346 347 344 343 346 347 344 342 342 341 338 335 335 334 335
336 339 341 336 335 337 335 333 333 332 332 333 334 336 337 336 334 334 334 335 337 336 338 342 342 338 333 335 340 344 348 351 351 351 351 349 347 345 342 341 341 340 342 344 345 347 347 343 342 341 339 339 338 337 339 340 341 341 341 339 336 336 336
336 339 340 335 331 334 334 333 333 332 331 332 333 333 334 334 334 334 334 334 334 333 334 340 342 337 335 340 346 349 350 350 349 351 351 349 348 346 343 341 341 342 344 345 344 346 347 342 337 336 337 336 331 331 335 337 337 340 344 341 338 338 337
340 339 339 337 336 337 335 331 332 333 332 333 333 331 331 332 332 333 332 332 333 333 333 339 344 344 344 346 347 347 347 347 347 348 347 344 343 345 345 344 342 341 342 344 346 347 346 342 339 337 338 336 331 331 334 335 336 340 343 341 339 338 337
340 338 336 338 341 341 336 330 330 332 332 332 333 331 330 331 331 331 331 332 334 336 336 339 345 347 348 346 343 344 346 347 347 347 347 344 343 345 346 346 345 344 344 345 346 345 344 341 339 338 338 335 331 331 335 336 337 339 340 339 337 335 334
335 331 331 334 337 338 333 329 330 331 331 333 332 330 330 331 330 330 330 331 334 337 338 339 343 346 346 344 342 344 346 348 349 349 346 345 344 344 345 345 344 343 344 345 343 341 340 339 337 335 335 334 332 332 335 335 336 338 338 337 336 334 332
328 325 326 328 330 330 329 328 329 329 330 331 330 329 330 329 328 328 329 330 332 335 337 338 341 344 344 341 341 344 344 346 348 346 342 341 340 339 341 344 342 341 343 344 341 338 338 337 333 331 332 332 332 333 333 334 335 337 337 337 336 334 332
323 323 324 324 325 327 326 326 326 327 329 330 329 328 328 328 327 327 328 330 331 330 332 335 338 341 341 339 340 343 343 344 345 343 340 339 336 332 336 342 343 343 344 343 339 337 336 335 332 331 330 331 332 332 331 332 334 335 335 335 335 334 333
Wind_Speed
17 15 14 12 11 8 8 9 11 11 9 8 7 8 8 8 7 4 5 6 5 3 5 7 9 7 5 4 4 5 4 7 9 9 8 10 11 10 10 13 13 13 17 20 21 22 24 25 25 25 25 25 25 24 25 23 22 21 19 16 14 12 11
17 17 17 13 12 11 8 8 10 9 10 9 5 4 5 6 8 5 7 9 7 5 4 6 11 11 8 8 7 6 4 6 8 9 10 10 7 5 6 9 12 14 16 19 21 23 25 27 27 26 26 27 26 25 26 24 23 22 20 17 15 13 12
16 17 16 13 13 16 13 8 9 8 9 9 5 2 4 5 6 5 7 9 7 5 4 3 10 13 11 10 9 7 7 7 8 8 10 12 9 6 6 5 8 12 15 20 24 25 26 27 27 27 27 26 26 25 26 25 23 23 20 18 16 14 13
15 14 12 11 10 13 14 11 7 7 7 6 4 4 4 6 6 5 7 7 5 4 3 9 12 11 9 6 4 5 5 4 5 8 9 11 12 11 10 7 9 12 17 25 28 27 27 29 28 28 27 27 26 25 25 24 23 22 20 18 17 15 14
14 11 10 12 11 11 11 10 8 7 7 5 5 6 6 6 6 4 6 6 2 3 4 10 12 7 6 5 1 2 4 3 4 5 8 9 11 13 12 10 10 13 17 24 28 28 28 29 28 29 28 27 27 25 25 24 23 23 21 19 18 17 15
12 11 14 16 16 14 12 8 8 8 6 6 6 6 7 6 6 5 6 4 2 5 5 7 9 6 6 6 3 1 4 5 3 1 5 8 10 12 14 14 14 16 16 22 26 27 28 28 28 29 29 28 27 25 24 23 23 23 20 19 19 18 16
12 15 16 17 17 17 13 11 10 9 7 6 6 6 6 6 7 7 6 4 2 4 4 6 8 6 4 5 4 2 1 5 3 1 2 4 7 11 13 14 16 16 16 21 25 24 26 27 28 29 28 28 27 25 23 23 23 22 20 19 19 18 17
11 15 14 15 17 15 13 11 12 11 10 10 10 7 4 5 9 7 5 4 3 4 4 6 8 5 2 4 6 2 2 3 2 2 2 1 7 11 10 10 12 15 17 20 21 21 24 26 26 28 28 28 28 25 23 23 22 21 20 21 20 19 18
8 10 10 11 15 13 10 11 13 15 15 15 13 8 4 5 8 7 6 5 4 4 4 6 5 2 0 1 3 4 5 4 1 0 3 3 7 11 10 10 11 14 17 16 15 19 24 24 25 27 27 28 29 27 26 25 23 22 22 22 23 22 19
9 9 8 9 10 11 10 13 16 18 19 19 13 6 5 6 6 6 6 3 4 6 4 3 3 3 1 2 3 3 3 5 4 2 0 1 6 9 9 9 10 12 13 13 14 18 23 26 27 27 27 29 29 28 28 24 21 23 22 20 23 24 21
9 8 8 11 12 11 14 16 18 18 17 17 12 7 6 5 5 5 6 5 5 8 7 4 4 5 5 5 5 1 1 1 3 5 4 2 4 8 8 8 10 11 11 12 15 19 23 25 26 25 27 29 28 26 25 23 21 24 24 21 21 21 19
14 14 11 13 14 13 14 15 17 18 17 17 14 10 7 5 5 6 8 12 13 11 11 10 8 7 5 3 3 2 1 4 4 3 6 6 5 6 8 9 11 11 12 13 15 18 23 24 24 23 25 27 26 24 24 24 24 24 25 23 21 19 17
19 19 18 16 14 13 14 14 16 18 18 20 18 14 12 8 6 5 6 11 13 11 10 12 9 5 4 2 1 1 2 4 5 4 4 6 7 8 8 9 10 10 10 12 14 18 22 24 24 24 24 24 24 24 23 24 24 24 23 22 21 19 17
17 20 21 22 19 16 16 18 19 19 20 23 20 17 19 16 12 10 8 10 10 9 8 9 6 2 3 3 2 2 5 6 5 6 6 6 7 9 11 10 10 10 10 11 13 16 21 25 26 26 25 25 24 24 25 26 26 24 22 21 20 19 17
15 20 21 20 20 18 18 18 19 21 22 21 19 17 18 16 15 16 10 8 7 7 6 7 4 0 1 1 2 3 5 6 7 8 8 9 9 8 12 14 13 12 13 13 12 13 19 24 25 25 25 25 26 26 28 27 23 21 20 20 21 20 17
12 15 16 18 18 20 22 20 21 23 20 17 15 14 15 14 12 11 7 4 4 5 6 6 3 3 5 5 4 6 5 4 6 7 6 8 10 7 7 11 13 15 14 13 12 14 19 24 27 28 26 27 29 30 30 26 22 19 19 21 23 20 18
10 13 18 18 15 16 16 15 18 20 16 15 16 14 17 16 9 5 5 4 3 3 0 2 3 4 4 3 3 3 1 2 4 6 7 9 9 7 5 5 10 15 14 11 13 15 16 17 20 23 26 31 34 34 30 25 21 18 20 22 22 21 19
8 13 16 13 10 10 9 8 12 15 14 15 17 17 19 14 6 4 4 3 3 4 3 3 3 3 3 3 3 4 3 3 4 6 8 8 8 9 8 7 7 11 13 11 14 18 19 17 15 13 19 31 35 31 25 22 17 18 23 21 21 21 21
8 9 10 11 10 10 9 9 11 15 17 17 16 17 17 9 2 5 5 4 1 0 1 3 2 1 3 3 4 5 6 5 5 7 7 6 8 8 7 8 7 8 12 12 15 22 28 28 24 20 25 31 30 22 16 15 14 22 24 22 22 23 23
8 7 9 9 7 8 11 10 11 14 16 14 13 13 12 8 2 4 5 3 4 4 5 5 3 2 5 4 2 4 8 8 8 10 8 7 9 8 6 8 7 7 14 17 20 26 29 27 25 28 29 27 23 15 10 6 19 26 24 24 24 24 24
7 8 9 8 4 6 10 9 9 10 9 9 9 8 9 10 7 4 2 2 5 6 5 3 2 1 1 2 3 9 14 12 11 9 8 8 9 5 5 6 7 8 13 20 28 31 29 26 25 27 27 25 21 12 6 17 27 26 23 24 24 23 24
5 8 9 9 7 6 7 8 9 9 10 10 9 8 7 7 6 6 7 4 5 5 3 1 2 2 2 4 5 8 11 5 9 7 7 8 8 4 3 5 6 8 8 16 26 29 27 27 24 23 29 28 22 17 19 25 27 24 23 23 23 23 23
6 8 8 7 8 6 4 7 10 11 11 10 10 9 7 3 3 6 9 7 4 3 2 1 3 4 4 6 3 5 9 5 3 5 4 5 5 1 1 5 6 8 8 13 21 25 25 21 18 26 29 25 22 21 21 23 24 23 23 23 23 23 21
8 9 8 6 6 5 2 4 8 10 9 7 8 9 4 1 4 5 6 7 5 3 2 3 4 5 4 4 5 5 7 9 7 2 3 2 3 3 1 7 5 7 9 12 19 23 23 24 30 31 23 17 17 19 22 23 23 23 24 25 23 22 19
10 10 10 8 6 2 4 7 7 8 10 8 6 6 2 4 4 0 1 3 2 5 4 4 4 4 3 4 7 8 7 10 8 2 5 1 1 1 5 6 6 8 11 14 19 19 18 26 34 28 19 17 19 23 24 22 19 17 19 21 21 20 19
9 9 9 8 5 1 4 8 7 5 5 6 3 2 1 3 3 4 1 1 2 3 2 2 2 4 4 5 8 9 10 10 7 2 4 5 4 5 6 8 11 8 5 9 16 20 22 25 25 18 12 16 21 23 20 18 15 12 12 14 16 18 18
7 9 8 7 5 2 3 6 5 6 2 2 1 2 1 3 4 4 1 2 3 4 3 3 5 8 9 9 9 12 13 7 3 3 2 1 2 2 4 8 9 10 13 10 5 15 24 22 18 14 15 20 20 15 11 8 7 5 4 4 7 10 14
5 6 4 2 2 1 4 4 3 4 4 3 1 2 3 4 6 6 4 3 5 5 5 5 6 7 9 9 8 10 11 4 3 2 4 5 7 7 7 7 9 15 18 9 2 9 19 19 17 18 22 19 11 6 3 4 5 6 5 3 2 3 5
3 1 2 3 4 4 6 7 4 3 5 5 3 5 4 4 6 5 5 5 6 6 6 6 7 6 8 9 8 9 13 9 4 5 4 4 6 8 5 5 11 17 21 19 10 9 13 14 11 11 11 8 8 6 6 7 6 6 6 7 9 10 9
0 2 3 4 4 6 7 6 5 6 7 7 7 7 6 6 5 3 4 5 6 7 6 7 7 7 9 9 8 10 13 9 2 7 8 6 7 11 6 4 9 17 19 18 12 11 12 9 8 11 12 12 12 11 9 7 7 7 6 7 9 11 12
2 2 1 2 1 4 6 6 7 10 10 9 8 7 6 5 4 4 4 5 5 6 6 6 6 7 11 11 7 6 5 6 9 10 10 9 8 8 2 8 9 14 17 15 12 12 11 8 8 12 15 12 9 7 6 5 4 2 1 2 4 7 10
1 2 3 5 5 7 7 6 6 8 7 8 8 7 5 6 6 6 7 6 6 7 7 6 6 8 9 5 4 6 6 8 8 8 10 10 8 4 3 7 9 11 13 14 13 11 9 8 5 5 7 6 6 4 1 4 3 4 5 5 5 9 12
2 2 6 4 4 9 9 8 9 7 5 6 7 6 6 7 7 7 8 8 8 9 9 8 8 8 6 5 9 9 7 7 5 5 9 8 1 1 6 9 11 13 14 12 12 12 12 11 8 5 4 2 1 2 2 3 3 6 8 8 9 11 11
2 2 8 8 3 6 6 6 7 6 5 5 5 5 6 8 8 8 9 9 9 10 9 8 7 6 6 5 5 7 8 7 5 5 9 11 11 9 11 13 15 17 15 13 13 14 13 13 11 9 8 6 6 6 8 7 5 7 8 7 7 8 8
3 3 7 7 4 4 3 5 6 5 4 4 4 5 7 8 8 8 9 9 9 8 7 6 5 4 4 5 5 7 8 8 7 6 8 10 11 11 13 13 14 16 16 17 17 15 13 12 11 10 9 7 6 6 8 7 5 5 5 5 5 6 7
7 7 7 6 5 4 3 4 5 3 2 3 3 5 7 8 9 9 9 8 7 7 5 3 4 3 1 2 5 7 7 8 8 9 9 10 12 11 10 11 13 14 14 15 16 15 14 12 10 8 8 8 7 7 7 6 5 5 4 5 5 6 5
7 7 6 4 5 7 6 6 6 5 3 4 4 6 8 9 9 10 9 7 7 8 7 3 1 1 2 2 2 4 7 9 10 10 9 10 10 8 8 12 15 15 14 14 14 14 14 12 10 8 7 6 6 7 6 4 4 3 3 5 6 6 6
Wind_Direction
185 203 232 198 180 204 188 192 232 249 236 214 223 246 252 265 263 243 250 243 210 224 258 218 187 181 198 194 251 250 177 161 157 151 170 180 184 191 184 184 180 170 173 176 172 168 166 169 173 177 179 174 174 175 173 175 176 174 176 181 184 187 188
185 196 233 216 186 210 207 186 207 235 258 243 225 247 241 243 252 229 223 237 224 195 224 214 171 162 180 178 193 231 203 167 165 158 161 166 176 183 175 185 180 168 172 173 170 170 171 172 176 180 180 176 176 178 176 176 176 176 178 180 184 187 189
186 186 225 229 197 210 225 218 194 200 241 233 198 260 278 253 253 243 236 248 247 215 203 168 148 155 177 177 169 192 192 179 181 176 162 159 174 181 142 161 194 176 170 174 176 177 177 176 178 180 177 174 178 180 178 178 178 178 178 178 183 187 190
189 179 208 228 205 210 231 243 228 214 242 238 186 200 244 258 247 232 242 242 232 239 184 141 146 163 176 155 129 164 175 190 188 175 167 162 172 175 151 159 203 187 177 183 183 180 179 178 179 181 179 178 182 181 179 180 179 179 179 178 182 187 191
197 181 191 217 214 206 218 242 243 219 212 205 188 190 204 240 250 237 251 241 158 39 78 125 132 129 118 111 98 166 150 221 237 171 162 159 164 173 160 156 188 193 187 184 182 183 182 178 180 185 185 184 186 182 179 181 179 179 181 179 181 187 192
210 197 186 208 223 215 201 211 236 238 226 208 204 202 193 217 253 255 257 254 84 58 64 102 115 115 116 130 166 212 152 177 224 148 156 162 165 177 171 163 182 199 192 182 182 184 182 179 182 187 189 188 187 183 181 183 182 180 181 180 182 188 192
222 217 191 198 224 234 224 207 215 239 252 236 227 217 187 200 230 234 246 250 95 70 68 86 95 95 74 84 88 334 327 130 139 149 177 174 151 161 178 178 183 192 186 180 182 180 180 183 186 189 192 189 187 185 183 186 186 182 181 180 182 187 190
217 222 201 194 211 233 243 221 205 222 239 237 239 235 196 219 233 223 240 229 141 71 55 82 91 106 152 126 123 203 277 76 131 170 123 120 124 137 178 194 178 176 178 181 183 181 185 189 189 191 191 186 186 189 190 192 188 183 184 181 179 184 189
204 208 204 202 200 208 237 240 212 207 219 229 240 241 193 224 245 229 234 222 136 83 70 94 101 116 196 100 128 185 178 137 234 228 102 157 148 146 181 198 180 172 174 181 183 180 185 190 193 197 193 183 184 191 195 193 186 185 190 183 175 180 188
205 196 203 220 213 195 210 242 233 213 211 217 226 237 205 207 231 228 234 230 125 131 143 126 135 136 76 296 261 248 173 152 170 181 155 199 152 153 176 188 180 169 167 180 186 184 189 193 197 200 194 183 184 194 194 185 181 187 186 176 172 179 188
230 217 198 214 233 219 199 214 234 238 235 227 217 222 223 187 175 198 212 212 184 175 185 207 217 192 176 188 207 251 326 213 178 166 186 219 158 158 167 170 171 172 175 182 185 190 194 196 199 200 192 185 187 192 182 172 187 192 177 169 174 180 190
243 249 230 213 223 236 219 207 221 235 246 251 243 236 227 173 169 201 192 197 210 202 192 198 208 212 199 164 171 179 240 273 271 194 183 191 185 170 159 160 169 181 191 186 186 194 195 198 204 200 188 183 185 183 172 171 184 179 163 167 178 182 192
227 245 255 247 235 237 233 225 231 232 231 241 248 250 245 220 208 222 168 183 213 216 205 212 215 225 252 268 263 21 340 279 269 258 218 203 202 184 160 165 181 191 198 190 188 195 195 198 202 195 187 182 175 170 167 165 162 157 158 171 177 180 191
219 228 240 246 248 247 235 226 233 236 231 231 234 245 252 246 239 234 185 170 209 226 229 239 245 265 290 304 337 334 309 296 287 284 279 262 235 196 172 178 191 195 203 203 196 192 192 194 192 186 184 177 164 158 156 153 152 157 167 176 179 183 191
229 226 224 229 241 254 252 238 232 235 236 234 229 232 242 245 244 241 215 169 193 218 226 237 245 184 137 41 333 277 276 284 276 270 271 274 268 226 188 184 186 192 205 211 204 188 185 187 184 181 179 169 157 152 153 154 156 160 168 179 184 186 189
239 241 238 232 232 242 250 248 244 241 239 239 238 233 235 238 239 240 233 212 213 211 205 211 226 219 186 173 216 240 247 263 270 279 282 273 273 260 207 189 187 191 196 198 196 186 183 184 182 180 174 163 155 154 157 158 153 155 175 188 186 185 191
237 243 245 243 240 241 242 243 249 249 240 237 242 241 239 239 232 218 225 245 316 7 23 234 263 252 222 185 218 248 298 330 305 300 294 286 284 285 273 232 198 186 183 186 186 178 175 184 188 182 169 159 156 157 158 152 143 161 193 194 182 185 194
239 245 253 262 265 256 252 263 276 278 269 254 249 251 253 247 220 180 165 123 55 32 15 316 284 285 325 344 327 317 308 290 280 271 272 280 281 276 275 270 230 190 180 177 166 159 163 177 189 188 170 161 158 157 151 140 148 192 207 194 183 188 194
247 251 257 258 254 251 263 287 293 287 281 276 275 279 280 276 181 137 121 112 132 277 302 284 286 348 317 287 281 283 276 274 276 271 270 267 265 267 265 264 253 199 177 161 149 159 173 180 180 183 180 167 155 145 128 126 174 211 209 193 189 193 194
243 242 239 243 256 267 273 288 289 273 269 278 291 297 301 309 352 91 104 147 224 247 241 231 225 236 247 248 258 272 267 260 254 261 265 257 256 250 229 247 263 205 179 166 161 171 179 180 177 178 175 154 125 99 81 152 208 216 206 193 192 192 194
241 241 240 242 253 260 258 265 278 277 274 280 288 294 303 307 316 344 6 199 215 233 226 209 237 260 252 284 287 276 265 240 218 241 267 270 274 266 218 240 253 216 186 169 171 176 176 179 180 171 154 128 107 103 171 206 213 211 198 191 192 191 195
245 246 248 244 238 242 244 239 248 268 277 274 271 268 270 285 297 292 278 245 206 212 189 94 335 321 328 287 274 295 295 240 179 210 254 265 280 288 251 254 239 217 191 169 172 173 173 183 182 154 136 132 137 162 191 202 206 203 194 193 195 196 197
229 237 246 248 246 248 233 211 220 241 258 268 273 262 247 255 277 261 255 244 213 193 181 197 252 246 258 263 273 351 344 332 212 212 226 257 283 316 264 263 231 200 189 169 161 160 165 170 145 121 126 139 152 172 195 206 201 194 194 196 197 197 199
227 234 245 251 252 265 285 236 222 221 224 242 265 258 245 331 286 253 252 254 231 179 170 201 221 229 235 260 293 318 312 299 286 214 133 315 332 55 312 265 223 180 181 160 148 156 163 144 123 122 133 146 163 187 207 212 203 195 196 197 195 196 200
232 233 241 247 244 284 335 300 270 237 218 212 225 234 247 332 310 267 345 288 166 131 145 188 220 243 230 249 278 289 292 294 289 196 141 194 261 250 265 243 176 181 189 158 144 149 141 122 121 132 147 158 182 207 213 210 207 199 192 192 194 198 200
241 236 238 247 242 271 324 299 303 308 256 227 212 200 238 317 9 72 69 279 114 118 188 227 284 303 303 292 300 318 326 318 307 242 180 196 215 233 218 172 161 174 161 126 133 132 119 114 120 131 156 184 202 210 205 203 210 204 192 193 196 199 202
249 242 238 244 236 217 284 296 324 6 7 235 252 53 35 318 2 44 10 298 27 22 357 354 337 325 324 323 326 330 330 336 24 23 357 99 46 36 128 134 128 100 74 53 80 117 115 118 129 151 193 210 209 202 189 188 197 186 177 188 190 202 211
278 251 234 297 328 60 74 61 57 74 106 155 195 55 43 347 356 12 2 1 17 8 355 342 324 317 313 311 315 317 312 299 138 90 23 44 50 54 79 99 99 104 111 115 82 106 124 140 159 185 205 205 185 165 125 75 71 67 57 30 332 299 252
329 272 123 64 359 13 69 83 105 118 110 108 81 67 68 37 19 4 342 351 1 355 347 331 314 304 301 305 314 311 301 286 214 156 107 83 86 80 84 142 136 129 139 149 143 119 132 146 159 181 195 170 116 75 40 40 28 9 0 332 318 322 318
303 335 69 78 35 20 38 55 66 66 65 66 60 58 61 55 37 1 335 347 346 339 338 323 311 310 308 306 308 302 302 311 16 92 75 47 57 58 22 255 161 137 143 150 133 100 94 90 83 88 89 85 79 64 47 37 13 350 340 324 315 312 309
179 262 234 179 91 42 36 38 53 57 55 53 49 45 46 42 24 355 346 342 323 312 307 289 282 293 295 294 301 312 335 29 51 59 54 32 30 52 3 245 192 148 143 137 117 103 102 94 70 57 45 32 28 35 57 76 57 13 312 331 313 285 275
221 233 255 232 178 108 74 61 63 54 46 47 42 32 27 26 20 8 355 342 320 306 300 296 302 305 302 313 55 67 65 67 60 53 55 38 10 26 134 190 177 143 129 124 126 130 121 106 88 32 6 333 302 296 195 139 133 150 145 141 182 210 221
308 348 351 323 146 99 63 58 67 48 26 38 36 25 23 23 20 10 356 348 337 324 325 343 356 354 0 56 93 95 83 79 82 82 83 82 49 103 113 131 137 122 110 114 127 130 119 116 131 143 132 135 321 346 85 116 139 155 153 165 186 195 207
307 353 12 7 84 95 50 46 59 40 19 28 26 25 32 23 13 8 0 357 353 342 343 5 26 37 40 48 88 110 109 113 133 145 133 146 169 158 121 115 118 115 115 119 117 113 112 115 117 113 105 82 38 46 78 92 116 150 162 178 192 201 220
112 64 35 24 53 88 58 31 33 28 27 22 3 15 28 13 2 5 2 357 354 345 345 9 31 48 59 62 86 111 124 133 142 152 155 153 145 122 106 103 103 107 117 121 115 111 113 116 118 120 115 101 84 86 91 88 96 127 152 180 207 224 235
89 63 47 25 5 360 355 360 358 350 20 26 347 355 10 1 351 352 347 343 339 323 311 346 17 6 14 120 133 136 145 153 155 155 150 134 119 111 115 124 125 125 125 121 118 123 127 126 127 124 114 105 100 94 90 92 102 123 151 187 217 235 243
67 62 54 21 333 317 317 323 313 307 3 36 8 347 349 343 334 330 324 318 314 302 290 282 271 241 219 206 174 148 153 166 171 166 155 142 139 148 156 146 138 135 131 126 129 136 136 131 125 114 106 108 107 96 91 106 124 141 178 211 233 247 253